COSMOS 568

导读 | 豆包AI

COSMOS 568是苏联/独联体(CIS)“宇宙”(COSMOS)系列卫星中的一员,于1973年6月8日成功发射。冷战背景下,“宇宙”系列卫星覆盖科学研究、航天技术试验与军事侦察等多类任务,多数任务细节保密。推测该卫星延续系列定位,或开展空间环境探测或技术验证,体现了苏联当时稳步推进航天布局的发展脉络。

基本信息
目录编号:
6679
目录名称:
COSMOS 568
国际标识:
1973-037E
轨道中心:
EARTH
卫星名称:
COSMOS 568
卫星全名:
--
卫星状态:
在轨 (已飞行19319 天)
发射日期:
1973-06-08 UTC
国别 :
俄罗斯(独联体) (CIS)
星等 :
--
轨道信息
数据来源 国际轨道数据 AOE轨道数据
星历时间 2026-04-30T21:55:02+0800
8小时前
查看轨道信息
2026-04-30T09:00:00+0800
21小时前
查看轨道信息
半长轴 7805.405km 7805.401km
偏心率 0.006728 0.0066928
轨道倾角 74.018° 74.017°
近地点辐角 133.510° 134.195°
升交点赤经 307.398° 308.125°
平近点角 284.714° 5.506°
近地点 1374.753km 1375.024km
远地点 1479.783km 1479.504km
周期 114.381分钟 114.381分钟
每日圈数 12.589533 12.589543
详细信息
使用方式:
暂无
2D轨道图
3D轨道图
轨道高度分析图
轨道倾角分析图
轨道综合分析图
查看轨道综合分析图